Raleigh, NC (27601)

3:01 AM EST on February 22, 2017 (GMT -0500)
Five Points East | | Change Station

Elev 301 ft 35.80 °N, 78.64 °W | Updated 20 seconds ago

Mostly Cloudy
Mostly Cloudy
54.0 °F
Feels Like 54.0 °F
N
0.6
Wind Variable Wind from SW
Gusts 1.2 mph

Today
High -- | Low -- °F
--% Chance of Precip.
Yesterday
High -- | Low -- °F
Precip. -- in
Pressure 30.04 in
Visibility 10.0 miles
Clouds Few 3000 ft
Mostly Cloudy 4900 ft
Mostly Cloudy 25000 ft
Dew Point 42 °F
Humidity 63%
Rainfall 0.00 in
Snow Depth Not available.
6:53 AM 6:03 PM
Waning Crescent, 19% visible
METAR KRDU 220751Z 13003KT 10SM FEW030 BKN049 BKN250 12/08 A3004 RMK AO2 SLP172 T01170083
Pressure 30.04 in
Visibility 10.0 miles
Clouds Few 3000 ft
Mostly Cloudy 4900 ft
Mostly Cloudy 25000 ft
Dew Point 42 °F
Humidity 63%
Rainfall 0.00 in
Snow Depth Not available.
6:53 AM 6:03 PM
Waning Crescent, 19% visible
METAR KRDU 220751Z 13003KT 10SM FEW030 BKN049 BKN250 12/08 A3004 RMK AO2 SLP172 T01170083

Get Your Daily Forecast Email!

Thanks for signing up!

Be on the lookout for a verification email in your inbox.

You'll start receiving the daily forecast at 8 AM.

×

10-Day Weather Forecast

Almanac

Astronomy

Feb. 22, 2017 Rise Set
Actual Time
Civil Twilight
Nautical Twilight
Astronomical Twilight
Moon
Length of Visible Light
Length of Day
Tomorrow will be .
, % of the Moon is Illuminated

Today's Extremes

State Highs State Lows

Community

WunderPhotos

Upload Photos

1,962,540 photos uploaded!

WunderBlog® & News

Nearby

Air Quality

  Air Quality AQ Index Pollutant
Not available.

Snow Depth

Station Depth Elevation

Earthquake Activity

City Distance Mag. Time & Date
Minimum magnitude displayed is 2.5.

Coastal Water Temperatures

Place Temperature

Stations

Nearby Weather Stations

Station Location Temp. Windchill Dew Point Humidity Wind Precip. Elev Updated Type
                   

Watches & Warnings

There are currently no watches in effect.